AA0RD-13 Weather Reports


time (UTC)temp
F
wind
direction
speed
knots
gust
knots
rain 1hr
in
rain 24hr
in
rain mn
in
humidity
%
barometer
mb
20260506135822 51 269 9.6 11.3 0.00 0.00 0.00 94 1018.6
20260506135315 51 277 8.7 13.9 0.00 0.00 0.00 94 1018.6
20260506134825 51 267 11.3 14.8 0.00 0.00 0.00 94 1018.6
20260506134321 51 282 10.4 13.9 0.00 0.00 0.00 94 1018.5
20260506133830 51 275 11.3 13.0 0.00 0.00 0.00 94 1018.5
20260506133320 51 273 10.4 12.2 0.00 0.00 0.00 94 1018.5
20260506132831 51 266 9.6 12.2 0.00 0.00 0.00 94 1018.4
20260506132323 51 267 10.4 12.2 0.00 0.00 0.00 94 1018.4
20260506131834 51 266 9.6 13.0 0.00 0.00 0.00 94 1018.3
20260506131325 51 269 8.7 12.2 0.00 0.00 0.00 94 1018.3
20260506130817 51 266 10.4 13.0 0.00 0.00 0.00 94 1018.3
20260506130330 51 271 11.3 13.0 0.00 0.00 0.00 94 1018.2
20260506125820 51 263 10.4 12.2 0.00 0.00 0.00 94 1018.2
20260506125335 51 260 11.3 13.0 0.00 0.00 0.00 94 1018.2
20260506124846 51 263 10.4 13.0 0.00 0.00 0.00 94 1018.2
20260506124316 51 268 12.2 13.0 0.00 0.00 0.00 94 1018.3
20260506123828 51 259 9.6 13.9 0.00 0.00 0.00 94 1018.2
20260506123340 51 261 12.2 13.9 0.00 0.00 0.00 94 1018.3
20260506122830 51 260 12.2 14.8 0.00 0.00 0.00 94 1018.4
20260506122342 51 265 12.2 14.8 0.00 0.00 0.00 94 1018.4
20260506121833 51 260 12.2 14.8 0.00 0.00 0.00 94 1018.4
20260506121325 51 252 12.2 16.5 0.00 0.00 0.00 94 1018.3
20260506120816 51 259 14.8 16.5 0.00 0.00 0.00 94 1018.4
20260506120329 51 260 13.9 15.6 0.00 0.00 0.00 94 1018.2
20260506115824 51 255 11.3 15.6 0.00 0.00 0.00 94 1018.2
20260506115336 51 267 13.0 16.5 0.00 0.00 0.00 94 1018.1
20260506114826 51 267 14.8 16.5 0.00 0.00 0.00 94 1018.2
20260506114338 51 265 13.0 16.5 0.00 0.00 0.00 94 1018.1
20260506113828 51 269 13.9 16.5 0.00 0.00 0.00 94 1018.1
20260506113318 51 267 13.9 16.5 0.00 0.00 0.00 94 1018.0
20260506112830 51 257 13.0 14.8 0.00 0.00 0.00 94 1018.0
20260506112322 51 265 13.0 16.5 0.00 0.00 0.00 94 1018.0
20260506111831 51 259 13.9 16.5 0.00 0.00 0.00 94 1018.0
20260506111323 51 261 13.9 17.4 0.00 0.00 0.00 94 1018.0
20260506110818 51 252 13.9 17.4 0.00 0.00 0.00 94 1017.9
20260506110330 51 257 14.8 17.4 0.00 0.00 0.00 94 1017.8
20260506105820 51 259 13.9 16.5 0.00 0.00 0.00 94 1017.8
20260506105332 51 255 13.9 18.2 0.00 0.00 0.00 94 1017.7
20260506104825 51 261 15.6 22.6 0.00 0.00 0.00 94 1017.8
20260506104316 51 263 17.4 22.6 0.00 0.00 0.00 94 1017.8
20260506103828 51 262 14.8 18.2 0.00 0.00 0.00 94 1017.5
20260506103339 51 257 15.6 20.0 0.00 0.00 0.00 94 1017.5
20260506102827 51 263 13.9 20.0 0.00 0.00 0.00 94 1017.3
20260506102318 51 264 14.8 17.4 0.00 0.00 0.00 94 1017.3
20260506101828 51 263 14.8 17.4 0.00 0.00 0.00 94 1017.3
20260506101324 51 269 13.0 18.2 0.00 0.00 0.00 94 1017.2
20260506100814 51 267 14.8 18.2 0.00 0.00 0.00 94 1017.0
20260506100347 51 261 14.8 18.2 0.00 0.00 0.00 94 1017.1
20260506095817 51 261 13.9 18.2 0.00 0.00 0.00 94 1017.2
20260506095329 51 265 15.6 18.2 0.00 0.00 0.00 95 1017.0
20260506094820 51 250 15.6 18.2 0.00 0.00 0.00 95 1017.1
20260506094331 51 256 13.9 17.4 0.00 0.00 0.00 95 1017.2
20260506093821 51 250 13.9 17.4 0.00 0.00 0.00 95 1017.3
20260506093352 51 247 12.2 15.6 0.00 0.00 0.00 95 1017.3
20260506092822 51 246 13.0 14.8 0.00 0.00 0.00 95 1017.3
20260506092318 51 241 12.2 14.8 0.00 0.00 0.00 95 1017.1
20260506091830 51 239 13.0 14.8 0.00 0.00 0.00 95 1017.2
20260506091320 51 239 10.4 15.6 0.00 0.00 0.00 95 1017.1
20260506090831 51 239 13.0 15.6 0.00 0.00 0.00 95 1017.1
20260506090321 51 254 13.0 15.6 0.00 0.00 0.00 95 1017.1
20260506085832 51 250 12.2 15.6 0.00 0.00 0.00 95 1017.2
20260506085342 51 254 12.2 15.6 0.00 0.00 0.00 95 1017.2
20260506084831 51 244 12.2 14.8 0.00 0.00 0.00 96 1017.1
20260506084321 51 241 12.2 16.5 0.00 0.00 0.00 95 1017.0
20260506083833 51 250 12.2 15.6 0.00 0.00 0.00 96 1017.0
20260506083344 51 249 12.2 17.4 0.00 0.00 0.00 96 1016.9
20260506082815 51 246 13.0 17.4 0.00 0.00 0.00 96 1017.0
20260506082347 51 248 13.9 17.4 0.00 0.00 0.00 96 1017.0
20260506081822 51 250 15.6 19.1 0.00 0.00 0.00 96 1016.9
20260506081314 51 242 14.8 19.1 0.00 0.00 0.00 96 1016.9
20260506080826 51 254 14.8 17.4 0.00 0.00 0.00 96 1016.9
20260506080317 51 246 14.8 18.2 0.00 0.00 0.00 96 1016.9
20260506073330 51 254 15.6 19.1 0.00 0.00 0.00 96 1016.5
20260506072821 51 248 14.8 20.0 0.00 0.00 0.00 96 1016.5
20260506072334 51 244 15.6 20.0 0.00 0.00 0.00 96 1016.4
20260506071826 51 252 15.6 20.9 0.00 0.00 0.00 96 1016.4
20260506071317 51 263 15.6 21.7 0.00 0.00 0.00 96 1016.3
20260506070830 51 252 16.5 21.7 0.00 0.00 0.00 96 1016.3
20260506070321 51 252 16.5 20.0 0.00 0.00 0.00 96 1016.4
20260506062315 51 241 14.8 17.4 0.00 0.00 0.00 96 1016.1
20260506061827 51 245 14.8 17.4 0.00 0.00 0.00 96 1016.1
20260506061322 51 249 13.9 17.4 0.00 0.00 0.00 96 1016.1
20260506060814 51 242 13.9 17.4 0.00 0.00 0.00 96 1016.2
20260506060325 51 245 13.9 16.5 0.00 0.00 0.00 96 1016.2
20260506051322 51 246 14.8 19.1 0.00 0.00 0.00 95 1016.0
20260506050833 51 238 13.9 19.1 0.00 0.00 0.00 95 1016.0
20260506050324 51 234 14.8 19.1 0.00 0.00 0.00 95 1016.1
20260506044820 51 242 15.6 19.1 0.00 0.00 0.00 95 1015.9
20260506044331 51 246 15.6 19.1 0.00 0.00 0.00 95 1015.9
20260506043822 51 250 15.6 20.0 0.00 0.00 0.00 95 1015.9
20260506043333 52 242 16.5 20.0 0.00 0.00 0.00 95 1015.8
20260506042826 52 252 16.5 20.0 0.00 0.00 0.00 95 1015.6
20260506042317 52 248 16.5 20.0 0.00 0.00 0.00 95 1015.5
20260506041829 52 259 15.6 20.0 0.00 0.00 0.00 95 1015.4
20260506041321 52 246 15.6 20.0 0.00 0.00 0.00 95 1015.3
20260506040815 52 244 15.6 20.0 0.00 0.00 0.00 94 1015.0
20260506040327 52 248 16.5 20.0 0.00 0.00 0.00 94 1015.1
20260506035819 52 235 15.6 19.1 0.00 0.00 0.00 94 1014.9
20260506035332 52 250 14.8 19.1 0.00 0.00 0.00 94 1014.9
20260506034843 52 250 15.6 17.4 0.00 0.00 0.00 94 1014.9
20260506034334 52 246 14.8 17.4 0.00 0.00 0.00 94 1014.9
20260506033825 52 248 13.9 17.4 0.00 0.00 0.00 94 1014.7
20260506033316 52 246 13.9 17.4 0.00 0.00 0.00 94 1014.8
20260506032828 52 242 13.9 18.2 0.00 0.00 0.00 94 1014.8
20260506032324 52 247 13.9 18.2 0.00 0.00 0.00 93 1014.7
20260506031814 52 241 13.9 18.2 0.00 0.00 0.00 94 1014.8
20260506031326 52 264 14.8 18.2 0.00 0.00 0.00 93 1014.8
20260506030817 52 248 14.8 18.2 0.00 0.00 0.00 93 1014.7
20260506030330 52 252 13.9 19.1 0.00 0.00 0.00 93 1014.8
20260506025819 52 251 14.8 19.1 0.00 0.00 0.00 93 1014.8
20260506025331 52 252 15.6 18.2 0.00 0.00 0.00 93 1014.7
20260506024822 52 242 14.8 19.1 0.00 0.00 0.00 93 1014.9
20260506024335 53 252 14.8 19.1 0.00 0.00 0.00 93 1014.9
20260506023825 53 238 14.8 19.1 0.00 0.00 0.00 93 1014.9
20260506023320 53 248 16.5 20.0 0.00 0.00 0.00 93 1014.9
20260506022832 53 247 14.8 18.2 0.00 0.00 0.00 93 1014.8
20260506022324 53 260 15.6 20.0 0.00 0.00 0.00 92 1014.8
20260506021816 53 250 15.6 21.7 0.00 0.00 0.00 92 1014.8
20260506021328 53 246 16.5 21.7 0.00 0.00 0.00 92 1014.8
20260506020819 53 253 15.6 20.9 0.00 0.00 0.00 92 1014.8
20260506020330 53 248 15.6 20.0 0.00 0.00 0.00 92 1014.8
20260506015821 53 241 14.8 20.9 0.00 0.00 0.00 91 1014.8
20260506015318 53 254 15.6 20.9 0.00 0.00 0.00 92 1014.8
20260506014850 53 257 14.8 18.2 0.00 0.00 0.00 92 1014.9
20260506014339 53 251 13.9 18.2 0.00 0.00 0.00 92 1014.9
20260506013830 53 248 14.8 18.2 0.00 0.00 0.00 92 1014.9
20260506013322 53 241 14.8 17.4 0.00 0.00 0.00 92 1014.9
20260506012834 53 242 14.8 17.4 0.00 0.00 0.00 92 1015.0
20260506012344 53 248 14.8 18.2 0.00 0.00 0.00 92 1015.0
20260506011835 53 246 14.8 18.2 0.00 0.00 0.00 91 1014.9
20260506011346 54 248 13.9 16.5 0.00 0.00 0.00 91 1014.9
20260506010834 54 238 13.9 16.5 0.00 0.00 0.00 91 1014.9
20260506010324 54 244 13.0 16.5 0.00 0.00 0.00 91 1015.0
20260506005834 54 229 12.2 15.6 0.00 0.00 0.00 91 1015.0
20260506005324 54 246 11.3 15.6 0.00 0.00 0.00 91 1015.0
20260506004819 54 251 11.3 14.8 0.00 0.00 0.00 91 1015.0
20260506004330 54 237 12.2 15.6 0.00 0.00 0.00 91 1015.0
20260506003822 54 245 11.3 14.8 0.00 0.00 0.00 91 1014.9
20260506003332 54 251 12.2 14.8 0.00 0.00 0.00 91 1014.9
20260506002844 54 251 13.0 14.8 0.00 0.00 0.00 91 1015.1
20260506002315 54 240 12.2 14.8 0.00 0.00 0.00 91 1015.1
20260506001826 54 244 12.2 16.5 0.00 0.00 0.00 91 1015.1
20260506001317 54 250 13.0 16.5 0.00 0.00 0.00 90 1015.0
20260506000848 54 263 12.2 14.8 0.00 0.00 0.00 90 1015.0
20260506000317 54 246 12.2 14.8 0.00 0.00 0.00 90 1015.1
20260505235828 54 238 12.2 14.8 0.00 0.00 0.00 90 1015.2
20260505235325 55 250 10.4 13.0 0.00 0.00 0.00 89 1015.3
20260505234816 55 252 10.4 13.0 0.00 0.00 0.00 89 1015.4
20260505234350 55 267 8.7 10.4 0.00 0.00 0.00 89 1015.3
20260505233821 56 236 8.7 12.2 0.00 0.00 0.00 88 1015.4
20260505233332 56 236 8.7 12.2 0.00 0.00 0.00 88 1015.4
20260505232824 56 255 7.8 12.2 0.00 0.00 0.00 88 1015.3
20260505232315 56 247 7.0 8.7 0.00 0.00 0.00 88 1015.5
20260505231827 56 248 7.8 9.6 0.00 0.00 0.00 88 1015.6
20260505231316 56 240 7.8 8.7 0.00 0.00 0.00 87 1015.8
20260505230828 56 255 7.0 9.6 0.00 0.00 0.00 88 1015.8
20260505230322 56 244 7.8 9.6 0.00 0.00 0.00 87 1015.8
20260505225833 57 255 6.1 8.7 0.00 0.00 0.00 88 1015.9
20260505225344 56 246 7.0 8.7 0.00 0.00 0.00 88 1015.9
20260505224855 56 245 6.1 8.7 0.00 0.00 0.00 89 1015.9
20260505224325 56 261 6.1 7.8 0.00 0.00 0.00 89 1016.0
20260505223816 56 245 6.1 7.8 0.00 0.00 0.00 89 1016.0
20260505223327 56 245 4.3 7.0 0.00 0.00 0.00 90 1016.0
20260505222818 56 265 3.5 5.2 0.00 0.00 0.00 90 1016.1
20260505222328 56 274 3.5 6.1 0.00 0.00 0.00 90 1016.0
20260505221820 56 281 5.2 7.0 0.00 0.00 0.00 90 1016.1
20260505221316 56 257 5.2 7.0 0.00 0.00 0.00 91 1016.1
20260505220827 56 256 5.2 7.0 0.00 0.00 0.00 91 1016.2
20260505220317 55 261 5.2 7.0 0.00 0.00 0.00 92 1016.3
20260505215828 55 280 5.2 7.0 0.00 0.00 0.00 92 1016.4
20260505215319 55 270 5.2 7.0 0.00 0.00 0.00 93 1016.3
20260505214829 54 279 5.2 6.1 0.00 0.00 0.00 94 1016.3
20260505214321 54 282 5.2 6.1 0.00 0.00 0.00 94 1016.4
20260505213833 54 276 5.2 7.0 0.00 0.00 0.00 94 1016.4
20260505213323 54 281 5.2 7.0 0.00 0.00 0.00 94 1016.6
20260505212840 54 276 6.1 7.0 0.00 0.00 0.00 93 1016.6
20260505212329 54 279 5.2 7.0 0.00 0.00 0.00 94 1016.5
20260505211819 54 288 6.1 7.0 0.00 0.00 0.00 94 1016.5
20260505211332 54 287 5.2 7.0 0.00 0.00 0.00 94 1016.5
20260505210822 54 288 6.1 7.8 0.00 0.00 0.00 94 1016.6
20260505210314 53 294 6.1 7.8 0.00 0.00 0.00 94 1016.5
20260505205825 54 285 7.0 7.8 0.00 0.00 0.00 94 1016.5
20260505205317 54 273 6.1 7.0 0.00 0.00 0.00 94 1016.5
20260505204829 54 268 5.2 6.1 0.00 0.00 0.00 94 1016.5
20260505204325 54 282 4.3 7.0 0.00 0.00 0.00 94 1016.4
20260505203817 54 285 5.2 7.8 0.00 0.00 0.00 94 1016.5
20260505203328 54 275 7.0 7.8 0.00 0.00 0.00 93 1016.5
20260505202821 54 286 6.1 7.8 0.00 0.00 0.00 93 1016.5
20260505202332 54 279 7.0 7.8 0.00 0.00 0.00 93 1016.5
20260505201823 54 269 6.1 7.8 0.00 0.00 0.00 93 1016.5
20260505201315 54 263 5.2 7.0 0.00 0.00 0.00 93 1016.5
20260505200826 54 275 4.3 5.2 0.00 0.00 0.00 93 1016.6
20260505200322 55 283 3.5 5.2 0.00 0.00 0.00 93 1016.5
20260505195833 54 281 3.5 5.2 0.00 0.00 0.00 93 1016.6
20260505195325 54 287 3.5 5.2 0.00 0.00 0.00 93 1016.5
20260505194817 54 267 2.6 5.2 0.00 0.00 0.00 94 1016.5
20260505194328 54 277 3.5 5.2 0.00 0.00 0.00 93 1016.5
20260505193818 54 271 3.5 5.2 0.00 0.00 0.00 94 1016.5
20260505193329 54 261 3.5 4.3 0.00 0.00 0.00 94 1016.5
20260505192839 54 275 2.6 6.1 0.00 0.00 0.00 94 1016.5
20260505192329 54 269 3.5 6.1 0.00 0.00 0.00 94 1016.4
20260505191821 54 269 3.5 6.1 0.00 0.00 0.00 95 1016.4
20260505191317 53 268 3.5 6.1 0.00 0.00 0.00 95 1016.5
20260505190829 53 267 3.5 6.1 0.00 0.00 0.00 95 1016.4
20260505190320 53 264 4.3 5.2 0.00 0.00 0.00 95 1016.4
20260505185852 53 266 3.5 5.2 0.00 0.00 0.00 95 1016.3
20260505185322 53 265 2.6 5.2 0.00 0.00 0.00 95 1016.4
20260505184814 53 271 3.5 5.2 0.00 0.00 0.00 95 1016.4
20260505184326 53 263 2.6 5.2 0.00 0.00 0.00 95 1016.4
20260505183836 52 276 3.5 5.2 0.00 0.00 0.00 95 1016.4
20260505183327 53 272 4.3 6.1 0.00 0.00 0.00 95 1016.4
20260505182821 52 290 3.5 7.0 0.00 0.00 0.00 95 1016.4
20260505182333 52 292 5.2 7.0 0.00 0.00 0.00 95 1016.4
20260505181824 52 290 6.1 7.0 0.00 0.00 0.00 95 1016.3
20260505181316 53 284 4.3 7.8 0.00 0.00 0.00 95 1016.2
20260505180827 52 295 6.1 7.8 0.00 0.00 0.00 95 1016.3
20260505180319 52 308 5.2 7.8 0.00 0.00 0.00 95 1016.2
20260505175830 53 291 6.1 7.8 0.00 0.00 0.00 96 1016.3
20260505175322 52 279 4.3 7.0 0.00 0.00 0.00 96 1016.2
20260505174818 52 296 5.2 7.0 0.00 0.00 0.00 96 1016.1
20260505174329 52 292 2.6 6.1 0.00 0.00 0.00 96 1016.1
20260505173821 52 293 3.5 6.1 0.00 0.00 0.00 97 1016.0
20260505173329 52 275 2.6 3.5 0.00 0.00 0.00 97 1016.1
20260505172821 52 275 2.6 5.2 0.00 0.00 0.00 97 1016.0
20260505172332 52 275 2.6 5.2 0.00 0.00 0.00 97 1016.0
20260505171845 52 275 2.6 3.5 0.00 0.00 0.00 97 1015.9
20260505171314 52 275 1.7 3.5 0.00 0.00 0.00 97 1015.9
20260505170847 52 275 1.7 3.5 0.00 0.00 0.00 97 1016.0
20260505170317 52 275 1.7 2.6 0.00 0.00 0.00 97 1016.0
20260505165849 52 275 1.7 3.5 0.00 0.00 0.00 98 1015.8
20260505165323 52 275 1.7 3.5 0.00 0.00 0.00 98 1015.9
20260505164815 52 275 2.6 3.5 0.00 0.00 0.00 98 1016.0
20260505164327 51 275 1.7 3.5 0.00 0.00 0.00 98 1016.0
20260505163818 51 275 2.6 3.5 0.00 0.00 0.00 98 1016.0
20260505163350 51 275 2.6 5.2 0.00 0.00 0.00 98 1015.9
20260505162820 51 275 4.3 5.2 0.00 0.00 0.00 98 1016.0
20260505162332 51 275 4.3 5.2 0.00 0.00 0.00 98 1015.9
20260505161824 51 275 2.6 3.5 0.00 0.00 0.00 98 1015.9
20260505161336 51 275 2.6 3.5 0.00 0.00 0.00 98 1015.9
20260505160825 51 275 2.6 3.5 0.00 0.00 0.00 98 1015.8
20260505160320 51 275 2.6 5.2 0.00 0.00 0.00 98 1015.8
20260505153332 51 254 3.5 4.3 0.00 0.00 0.00 97 1015.7
20260505152823 51 254 3.5 6.1 0.00 0.00 0.00 97 1015.6
20260505152319 51 254 3.5 6.1 0.00 0.00 0.00 97 1015.5
20260505151831 51 254 2.6 4.3 0.00 0.00 0.00 97 1015.5
20260505151323 51 254 3.5 7.0 0.00 0.00 0.00 97 1015.5
20260505150854 51 254 4.3 7.0 0.00 0.00 0.00 97 1015.4
20260505150325 51 254 6.1 7.8 0.00 0.00 0.00 97 1015.4
20260505140348 52 265 7.8 8.7 0.00 0.00 0.00 96 1014.7